OBJECT AR, 68455

Orbit data source: Space-Track

You're viewing an Uncataloged Satellite

Recently launched and/or uncataloged satellites may have evolving metadata. Metadata may include but not limited to: Owner, Maufacturer, Bus, Motor, and Mission.

OBJECT AR, 68455 is a satellite in SSO that was launched on Mon, 30 Mar 2026 UTC via an FALCON 9 launch vehicle from the Air Force Western Test Range (AFWTR). Unknown objects in Earth's orbit typically refer to objects detected orbiting the Earth but have not yet been identified or cataloged. These objects could be anything from previously untracked satellites, spent rocket stages, debris from satellite collisions, or even natural meteoroids temporarily captured by Earth's gravity.

Loading next visibility...
Identifier
68455, 2026-067AR
Orbit
SSO
Country
Flag of TBDTBD
Related business
None
Manufacturer
Unknown
Mission
Operational spacecraft
Bus & Motor
Unknown
Mass
Unknown
Launch date (UTC)
2026-03-30 (1 month ago)
Launch vehicle
FALCON 9
Launch site
Air Force Western Test Range (AFWTR)
Object type
Unknown
Shape & HBR
Unknown shape, 1.1 m
Radar Cross Section
RCS unknown

Expand to show TLE details & history
Last TLE update: 10 hours ago

TLE from 10 hours ago
0 OBJECT AR
1 68455U 26067AR  26127.10285295  .00004570  00000-0  23442-3 0  9993
2 68455  97.4560  86.1317 0005194 186.9362 173.1800 15.17028334  5707
Epoch: 2026-05-07T02:28Z
TLE epoch observation values (Epoch: 2026-05-07T02:28:06.494Z)
Latitude
-0.00009°
Longitude
-175.84915°
Altitude
521.468 km
Speed
7.601 km/s
True Right ascension
05h 44m 31s
True Declination
0° 00' 00"
Sunlit
Object was in daylight at epoch
Visualization orbit readout
Latitude
Unknown
Longitude
Unknown
Altitude
Unknown
Speed
Unknown
Apparent Right ascension
Unknown
Apparent Declination
Unknown
Sunlit
N/A
Visualization observer readout
Local Sidereal Time
20:05:09
Azimuth
Unknown
Elevation
Unknown
Doppler factor
Unknown
Orbital elements
Apogee altitude
515.378 km
Perigee altitude
508.221 km
Semi-major axis
6,889.937 km
Eccentricity
0.00052
Inclination
97.456°
RAAN
86.1317°
Arg. of periapsis
186.9362°
True anomaly
173.18706°
Mean anomaly
173.18°
Eccentric anomaly
173.18353°
Mean motion
3.79507 °/min
Orbital period
94.86 mins
BSTAR
0.00023442
Loading maneuver chart data...
Computing Atmospheric mass density...
Loading historical data...
Loading historical data...
Loading historical data...
Loading historical data...
Loading historical data...
Loading historical data...
Loading historical data...

Documentation

Showing up to 5 results
|